Jordan Escarpment

*Note: All times are displayed in the local standard time of the station location.
**Rain - Equipment is designed to accurately record liquid precipitation; under conditions when precipitation is not in liquid form, the data displayed may not properly reflect rainfall values.

Date Max Temp
(°C)
Min Temp
(°C)
Avg Temp
(°C)
Rain (mm) Avg RH (%)
Fri, Feb 15, 2019 4.3 -4.7 0.7 2.8 76.4
Thu, Feb 14, 2019 4.6 -5.0 -0.8 0.0 72.2
Wed, Feb 13, 2019 0.8 -4.9 -3.0 0.2 82.2
Tue, Feb 12, 2019 2.1 -5.7 -2.4 1.8 89.8
Mon, Feb 11, 2019 -2.5 -5.1 -3.8 0.0 75.6
Sun, Feb 10, 2019 -3.0 -10.5 -6.4 0.0 75.0
Sat, Feb 09, 2019 -4.6 -10.3 -7.4 0.0 68.0
DateTime Avg Temp (°C) Rain (mm) RH (%)
Sat, Feb 16, 2019 16:00 -2.2 0.0 61.7
Sat, Feb 16, 2019 15:00 -2.2 0.0 62.5
Sat, Feb 16, 2019 14:00 -2.6 0.0 64.9
Sat, Feb 16, 2019 13:00 -3.1 0.0 65.8
Sat, Feb 16, 2019 12:00 -3.5 0.0 65.3
Sat, Feb 16, 2019 11:00 -3.9 0.0 68.8
Sat, Feb 16, 2019 10:00 -4.1 0.0 68.2
Sat, Feb 16, 2019 09:00 -4.1 0.0 65.3
Sat, Feb 16, 2019 08:00 -4.8 0.0 69.9
Sat, Feb 16, 2019 07:00 -4.3 0.0 74.7
Sat, Feb 16, 2019 06:00 -3.7 0.0 77.0
Sat, Feb 16, 2019 05:00 -3.9 0.0 82.8
Sat, Feb 16, 2019 04:00 -4.0 0.0 82.1
Sat, Feb 16, 2019 03:00 -4.1 0.0 81.0
Sat, Feb 16, 2019 02:00 -4.1 0.0 78.0
Sat, Feb 16, 2019 01:00 -4.3 0.0 76.5
Sat, Feb 16, 2019 00:00 -4.4 0.0 74.5
Fri, Feb 15, 2019 23:00 -4.7 0.0 73.9
Fri, Feb 15, 2019 22:00 -4.3 0.0 72.5
Fri, Feb 15, 2019 21:00 -3.7 0.0 69.4
Fri, Feb 15, 2019 20:00 -2.7 0.0 72.0
Fri, Feb 15, 2019 19:00 -2.3 0.0 69.3
Fri, Feb 15, 2019 18:00 -1.6 0.0 69.7
Fri, Feb 15, 2019 17:00 -0.9 0.0 67.5
Fri, Feb 15, 2019 16:00 -0.4 0.0 69.2
Fri, Feb 15, 2019 15:00 -0.2 0.0 72.9
Fri, Feb 15, 2019 14:00 1.0 0.0 68.6
Fri, Feb 15, 2019 13:00 1.6 0.0 67.0
Fri, Feb 15, 2019 12:00 2.0 0.0 72.3
Fri, Feb 15, 2019 11:00 3.1 0.0 76.8
Fri, Feb 15, 2019 10:00 3.6 0.0 85.2
Fri, Feb 15, 2019 09:00 3.3 0.0 92.2
Fri, Feb 15, 2019 08:00 3.5 0.2 91.5
Fri, Feb 15, 2019 07:00 3.3 0.2 93.4
Fri, Feb 15, 2019 06:00 3.4 1.2 93.3
Fri, Feb 15, 2019 05:00 3.6 0.6 91.7
Fri, Feb 15, 2019 04:00 4.0 0.4 82.6
Fri, Feb 15, 2019 03:00 3.8 0.2 73.3
Fri, Feb 15, 2019 02:00 2.6 0.0 69.5
Fri, Feb 15, 2019 01:00 3.8 0.0 66.5
Fri, Feb 15, 2019 00:00 4.3 0.0 64.0
Thu, Feb 14, 2019 23:00 4.2 0.0 60.1
Thu, Feb 14, 2019 22:00 3.8 0.0 60.9
Thu, Feb 14, 2019 21:00 0.4 0.0 73.6
Thu, Feb 14, 2019 20:00 -0.5 0.0 76.6
Thu, Feb 14, 2019 19:00 0.3 0.0 71.1
Thu, Feb 14, 2019 18:00 1.4 0.0 65.1
Thu, Feb 14, 2019 17:00 2.2 0.0 61.6


asterix Register now to access more data! asterix